| time (UTC) | temp F | wind direction | speed MPH | gust MPH | rain 1hr in | rain 24hr in | rain mn in | humidity % | barometer mb |
| 20260901064045 | 75 | 244 | 8.0 | 19.0 | 0.00 | 0.01 | 0.01 | 41 | 1019.1 |
| 20260901063543 | 75 | 260 | 6.0 | 17.0 | 0.00 | 0.01 | 0.01 | 41 | 1019.1 |
| 20260901063044 | 76 | 294 | 8.0 | 17.0 | 0.00 | 0.01 | 0.01 | 41 | 1019.1 |
| 20260901062545 | 76 | 234 | 7.0 | 14.0 | 0.00 | 0.01 | 0.01 | 41 | 1019.1 |
| 20260901062043 | 76 | 270 | 6.0 | 14.0 | 0.00 | 0.01 | 0.01 | 40 | 1019.1 |
| 20260901061543 | 76 | 219 | 7.0 | 12.0 | 0.00 | 0.01 | 0.01 | 40 | 1019.0 |
| 20260901061044 | 76 | 290 | 5.0 | 18.0 | 0.00 | 0.01 | 0.01 | 39 | 1019.1 |
| 20260901060543 | 76 | 279 | 8.0 | 18.0 | 0.00 | 0.01 | 0.01 | 39 | 1019.0 |
| 20260901060041 | 76 | 284 | 7.0 | 16.0 | 0.00 | 0.01 | 0.01 | 39 | 1019.1 |
| 20260901055541 | 76 | 250 | 9.0 | 17.0 | 0.00 | 0.01 | 0.01 | 39 | 1019.2 |
| 20260901055041 | 76 | 242 | 10.0 | 22.0 | 0.00 | 0.01 | 0.01 | 38 | 1019.3 |
| 20260901054544 | 76 | 261 | 10.0 | 21.0 | 0.00 | 0.01 | 0.01 | 38 | 1019.3 |
| 20260901054042 | 76 | 226 | 9.0 | 22.0 | 0.00 | 0.01 | 0.01 | 37 | 1019.4 |
| 20260901053543 | 76 | 298 | 12.0 | 22.0 | 0.00 | 0.01 | 0.01 | 37 | 1019.4 |
| 20260901053104 | 76 | 259 | 8.0 | 21.0 | 0.00 | 0.01 | 0.01 | 38 | 1019.4 |
| 20260901052544 | 76 | 268 | 11.0 | 19.0 | 0.00 | 0.01 | 0.01 | 38 | 1019.4 |
| 20260901052039 | 76 | 237 | 9.0 | 20.0 | 0.00 | 0.01 | 0.01 | 38 | 1019.4 |
| 20260901051559 | 76 | 235 | 11.0 | 20.0 | 0.00 | 0.01 | 0.01 | 37 | 1019.4 |
| 20260901051041 | 76 | 265 | 9.0 | 19.0 | 0.00 | 0.01 | 0.01 | 38 | 1019.4 |
| 20260901050538 | 76 | 336 | 7.0 | 14.0 | 0.00 | 0.01 | 0.01 | 39 | 1019.5 |
| 20260901050037 | 76 | 282 | 9.0 | 19.0 | 0.00 | 0.01 | 0.01 | 39 | 1019.6 |
| 20260901045537 | 76 | 253 | 7.0 | 16.0 | 0.00 | 0.01 | 0.01 | 39 | 1019.6 |
| 20260901045036 | 76 | 284 | 10.0 | 21.0 | 0.00 | 0.01 | 0.01 | 38 | 1019.6 |
| 20260901044548 | 76 | 294 | 12.0 | 21.0 | 0.00 | 0.01 | 0.01 | 38 | 1019.6 |
| 20260901044035 | 76 | 245 | 8.0 | 18.0 | 0.00 | 0.01 | 0.01 | 39 | 1019.6 |
| 20260901043536 | 75 | 280 | 10.0 | 23.0 | 0.00 | 0.01 | 0.01 | 39 | 1019.6 |
| 20260901043034 | 75 | 258 | 13.0 | 23.0 | 0.00 | 0.01 | 0.01 | 39 | 1019.8 |
| 20260901042532 | 76 | 255 | 11.0 | 19.0 | 0.00 | 0.01 | 0.01 | 38 | 1019.8 |
| 20260901042032 | 76 | 309 | 9.0 | 17.0 | 0.00 | 0.01 | 0.01 | 39 | 1019.8 |
| 20260901041533 | 76 | 285 | 9.0 | 17.0 | 0.00 | 0.01 | 0.01 | 40 | 1019.9 |
| 20260901041030 | 76 | 273 | 7.0 | 19.0 | 0.00 | 0.01 | 0.01 | 40 | 1019.9 |
| 20260901040530 | 76 | 259 | 9.0 | 19.0 | 0.00 | 0.01 | 0.01 | 40 | 1020.0 |
| 20260901040028 | 75 | 254 | 7.0 | 15.0 | 0.00 | 0.01 | 0.01 | 41 | 1020.1 |
| 20260901035531 | 75 | 304 | 7.0 | 17.0 | 0.00 | 0.01 | 0.01 | 40 | 1020.1 |
| 20260901035026 | 75 | 275 | 9.0 | 18.0 | 0.00 | 0.01 | 0.01 | 40 | 1020.2 |
| 20260901034529 | 75 | 250 | 10.0 | 18.0 | 0.00 | 0.01 | 0.01 | 40 | 1020.3 |
| 20260901034024 | 75 | 250 | 8.0 | 16.0 | 0.00 | 0.01 | 0.01 | 41 | 1020.3 |
| 20260901033523 | 75 | 227 | 8.0 | 16.0 | 0.00 | 0.01 | 0.01 | 41 | 1020.4 |
| 20260901033027 | 75 | 256 | 7.0 | 16.0 | 0.00 | 0.01 | 0.01 | 41 | 1020.6 |
| 20260901032521 | 75 | 269 | 7.0 | 16.0 | 0.00 | 0.01 | 0.01 | 41 | 1020.6 |
| 20260901032023 | 74 | 260 | 7.0 | 16.0 | 0.00 | 0.01 | 0.01 | 43 | 1020.8 |
| 20260901031523 | 74 | 297 | 7.0 | 16.0 | 0.00 | 0.01 | 0.01 | 43 | 1020.9 |
| 20260901031020 | 74 | 283 | 9.0 | 16.0 | 0.00 | 0.01 | 0.01 | 43 | 1020.9 |
| 20260901030517 | 74 | 245 | 10.0 | 15.0 | 0.00 | 0.01 | 0.01 | 43 | 1021.1 |
| 20260901030015 | 74 | 262 | 9.0 | 15.0 | 0.00 | 0.01 | 0.01 | 45 | 1021.3 |
| 20260901025513 | 74 | 280 | 7.0 | 15.0 | 0.00 | 0.01 | 0.01 | 46 | 1021.3 |
| 20260901025013 | 74 | 222 | 8.0 | 15.0 | 0.00 | 0.01 | 0.01 | 46 | 1021.4 |
| 20260901024511 | 73 | 272 | 6.0 | 17.0 | 0.00 | 0.01 | 0.01 | 47 | 1021.6 |
| 20260901024009 | 73 | 284 | 10.0 | 16.0 | 0.00 | 0.01 | 0.01 | 46 | 1021.7 |
| 20260901023508 | 73 | 251 | 8.0 | 16.0 | 0.00 | 0.01 | 0.01 | 46 | 1021.7 |
| 20260901023011 | 73 | 254 | 9.0 | 18.0 | 0.00 | 0.01 | 0.01 | 46 | 1021.9 |
| 20260901022506 | 73 | 276 | 9.0 | 18.0 | 0.00 | 0.01 | 0.01 | 46 | 1022.0 |
| 20260901022005 | 73 | 228 | 6.0 | 14.0 | 0.00 | 0.01 | 0.01 | 47 | 1022.1 |
| 20260901021510 | 73 | 275 | 7.0 | 20.0 | 0.00 | 0.01 | 0.01 | 48 | 1022.2 |
| 20260901021004 | 73 | 292 | 9.0 | 20.0 | 0.00 | 0.01 | 0.01 | 47 | 1022.4 |
| 20260901020503 | 73 | 277 | 5.0 | 17.0 | 0.00 | 0.01 | 0.01 | 49 | 1022.6 |
| 20260901020101 | 72 | 276 | 8.0 | 20.0 | 0.00 | 0.01 | 0.01 | 49 | 1022.7 |
| 20260901015558 | 72 | 284 | 9.0 | 20.0 | 0.00 | 0.01 | 0.01 | 49 | 1022.8 |
| 20260901015057 | 71 | 285 | 10.0 | 17.0 | 0.00 | 0.01 | 0.01 | 49 | 1023.0 |
| 20260901014559 | 72 | 251 | 8.0 | 15.0 | 0.00 | 0.01 | 0.01 | 50 | 1023.1 |
| 20260901014054 | 72 | 273 | 8.0 | 14.0 | 0.00 | 0.01 | 0.01 | 50 | 1023.3 |
| 20260901013553 | 72 | 289 | 5.0 | 15.0 | 0.00 | 0.01 | 0.01 | 53 | 1023.4 |
| 20260901013052 | 71 | 245 | 8.0 | 15.0 | 0.00 | 0.01 | 0.01 | 52 | 1023.6 |
| 20260901012554 | 71 | 281 | 5.0 | 12.0 | 0.00 | 0.01 | 0.01 | 52 | 1023.8 |
| 20260901012049 | 71 | 286 | 4.0 | 14.0 | 0.00 | 0.01 | 0.01 | 53 | 1023.9 |
| 20260901011547 | 70 | 263 | 6.0 | 14.0 | 0.00 | 0.01 | 0.01 | 53 | 1024.0 |
| 20260901011046 | 70 | 304 | 6.0 | 13.0 | 0.00 | 0.01 | 0.01 | 53 | 1024.1 |
| 20260901010545 | 70 | 215 | 6.0 | 15.0 | 0.00 | 0.01 | 0.01 | 53 | 1024.2 |
| 20260901010043 | 70 | 234 | 6.0 | 15.0 | 0.00 | 0.01 | 0.01 | 53 | 1024.3 |
| 20260901005542 | 69 | 307 | 5.0 | 13.0 | 0.00 | 0.01 | 0.01 | 54 | 1024.5 |
| 20260901005041 | 69 | 269 | 7.0 | 13.0 | 0.00 | 0.01 | 0.01 | 56 | 1024.6 |
| 20260901004539 | 68 | 293 | 7.0 | 13.0 | 0.00 | 0.01 | 0.01 | 58 | 1024.6 |
| 20260901004038 | 68 | 238 | 7.0 | 11.0 | 0.00 | 0.01 | 0.01 | 60 | 1024.7 |
| 20260901003537 | 67 | 282 | 4.0 | 11.0 | 0.00 | 0.01 | 0.01 | 61 | 1024.8 |
| 20260901003037 | 67 | 263 | 5.0 | 11.0 | 0.00 | 0.01 | 0.01 | 63 | 1024.9 |
| 20260901002537 | 66 | 281 | 4.0 | 12.0 | 0.00 | 0.01 | 0.01 | 63 | 1024.9 |
| 20260901002036 | 66 | 290 | 5.0 | 12.0 | 0.00 | 0.01 | 0.01 | 63 | 1025.0 |
| 20260901001532 | 66 | 282 | 3.0 | 10.0 | 0.00 | 0.01 | 0.01 | 64 | 1025.1 |
| 20260901001031 | 65 | 339 | 4.0 | 10.0 | 0.00 | 0.01 | 0.01 | 65 | 1025.1 |
| 20260901000529 | 65 | 277 | 3.0 | 9.0 | 0.00 | 0.01 | 0.01 | 66 | 1025.1 |
| 20260901000027 | 65 | 319 | 4.0 | 10.0 | 0.00 | 0.01 | 0.01 | 66 | 1025.2 |
| 20260831235527 | 64 | 318 | 6.0 | 10.0 | 0.00 | 0.01 | 0.01 | 67 | 1025.2 |
| 20260831235026 | 64 | 275 | 3.0 | 9.0 | 0.00 | 0.01 | 0.01 | 70 | 1025.3 |
| 20260831234523 | 63 | 250 | 3.0 | 10.0 | 0.00 | 0.01 | 0.01 | 71 | 1025.4 |
| 20260831234024 | 63 | 298 | 3.0 | 11.0 | 0.00 | 0.01 | 0.01 | 72 | 1025.4 |
| 20260831233521 | 62 | 277 | 4.0 | 9.0 | 0.00 | 0.01 | 0.01 | 75 | 1025.6 |
| 20260831233021 | 61 | 258 | 3.0 | 8.0 | 0.00 | 0.01 | 0.01 | 78 | 1025.6 |
| 20260831232520 | 60 | 316 | 3.0 | 8.0 | 0.00 | 0.01 | 0.01 | 78 | 1025.8 |
| 20260831232019 | 60 | 302 | 4.0 | 9.0 | 0.00 | 0.01 | 0.01 | 79 | 1025.9 |
| 20260831231516 | 59 | 321 | 3.0 | 6.0 | 0.00 | 0.01 | 0.01 | 80 | 1025.9 |
| 20260831231015 | 59 | 263 | 3.0 | 9.0 | 0.00 | 0.01 | 0.01 | 80 | 1026.0 |
| 20260831230514 | 58 | 278 | 4.0 | 9.0 | 0.00 | 0.01 | 0.01 | 81 | 1026.1 |
| 20260831230012 | 58 | 309 | 4.0 | 8.0 | 0.00 | 0.01 | 0.01 | 82 | 1026.2 |
| 20260831225512 | 58 | 299 | 3.0 | 10.0 | 0.00 | 0.01 | 0.01 | 82 | 1026.2 |
| 20260831225009 | 57 | 317 | 4.0 | 9.0 | 0.00 | 0.01 | 0.01 | 83 | 1026.3 |
| 20260831224508 | 57 | 283 | 5.0 | 8.0 | 0.00 | 0.01 | 0.01 | 83 | 1026.3 |
| 20260831224008 | 57 | 298 | 4.0 | 8.0 | 0.00 | 0.01 | 0.01 | 84 | 1026.4 |
| 20260831223506 | 56 | 259 | 2.0 | 6.0 | 0.00 | 0.01 | 0.01 | 86 | 1026.5 |
| 20260831223006 | 56 | 290 | 2.0 | 8.0 | 0.00 | 0.01 | 0.01 | 87 | 1026.5 |
| 20260831222507 | 55 | 309 | 3.0 | 8.0 | 0.00 | 0.01 | 0.01 | 88 | 1026.5 |
| 20260831222005 | 55 | 269 | 3.0 | 6.0 | 0.00 | 0.01 | 0.01 | 89 | 1026.5 |
| 20260831221508 | 55 | 329 | 3.0 | 6.0 | 0.00 | 0.01 | 0.01 | 90 | 1026.6 |
| 20260831221004 | 54 | 328 | 2.0 | 5.0 | 0.00 | 0.01 | 0.01 | 91 | 1026.6 |
| 20260831220504 | 53 | 319 | 3.0 | 5.0 | 0.00 | 0.01 | 0.01 | 92 | 1026.6 |
| 20260831220004 | 53 | 315 | 2.0 | 4.0 | 0.00 | 0.01 | 0.01 | 93 | 1026.6 |
| 20260831215504 | 52 | 322 | 2.0 | 4.0 | 0.00 | 0.01 | 0.01 | 93 | 1026.6 |
| 20260831215008 | 52 | 319 | 2.0 | 4.0 | 0.00 | 0.01 | 0.01 | 94 | 1026.6 |
| 20260831214503 | 51 | 307 | 2.0 | 5.0 | 0.00 | 0.01 | 0.01 | 95 | 1026.6 |
| 20260831214003 | 51 | 296 | 2.0 | 5.0 | 0.00 | 0.01 | 0.01 | 95 | 1026.5 |
| 20260831213503 | 51 | 306 | 1.0 | 3.0 | 0.00 | 0.01 | 0.01 | 95 | 1026.4 |
| 20260831213004 | 50 | 317 | 2.0 | 3.0 | 0.00 | 0.01 | 0.01 | 95 | 1026.4 |
| 20260831212502 | 50 | 285 | 1.0 | 3.0 | 0.00 | 0.01 | 0.01 | 95 | 1026.5 |
| 20260831212001 | 50 | 289 | 0.0 | 1.0 | 0.00 | 0.01 | 0.01 | 95 | 1026.4 |
| 20260831211501 | 49 | 289 | 0.0 | 3.0 | 0.00 | 0.01 | 0.01 | 95 | 1026.4 |
| 20260831211003 | 49 | 300 | 1.0 | 3.0 | 0.00 | 0.01 | 0.01 | 95 | 1026.4 |
| 20260831210501 | 49 | 283 | 1.0 | 3.0 | 0.00 | 0.01 | 0.01 | 95 | 1026.3 |
| 20260831205600 | 49 | 275 | 1.0 | 3.0 | 0.00 | 0.01 | 0.01 | 95 | 1026.2 |
| 20260831205059 | 49 | 271 | 1.0 | 4.0 | 0.00 | 0.01 | 0.01 | 95 | 1026.2 |
| 20260831204601 | 49 | 263 | 1.0 | 4.0 | 0.00 | 0.01 | 0.01 | 95 | 1026.2 |
| 20260831204059 | 49 | 287 | 2.0 | 3.0 | 0.00 | 0.01 | 0.01 | 95 | 1026.2 |
| 20260831203558 | 49 | 277 | 1.0 | 4.0 | 0.00 | 0.01 | 0.01 | 94 | 1026.2 |
| 20260831203105 | 50 | 275 | 1.0 | 5.0 | 0.00 | 0.01 | 0.01 | 94 | 1026.1 |
| 20260831202558 | 50 | 259 | 2.0 | 5.0 | 0.00 | 0.01 | 0.01 | 94 | 1026.1 |
| 20260831202055 | 50 | 289 | 2.0 | 5.0 | 0.00 | 0.01 | 0.01 | 95 | 1026.0 |
| 20260831201554 | 50 | 294 | 1.0 | 4.0 | 0.00 | 0.01 | 0.01 | 94 | 1026.0 |
| 20260831201054 | 50 | 317 | 0.0 | 0.0 | 0.00 | 0.01 | 0.01 | 94 | 1026.0 |
| 20260831200553 | 50 | 317 | 0.0 | 0.0 | 0.00 | 0.01 | 0.01 | 94 | 1026.0 |
| 20260831200056 | 51 | 317 | 0.0 | 0.0 | 0.00 | 0.01 | 0.01 | 94 | 1026.0 |
| 20260831195550 | 51 | 317 | 0.0 | 0.0 | 0.00 | 0.01 | 0.01 | 94 | 1025.9 |
| 20260831195051 | 51 | 317 | 0.0 | 0.0 | 0.00 | 0.01 | 0.01 | 94 | 1026.0 |
| 20260831194553 | 51 | 317 | 0.0 | 0.0 | 0.00 | 0.01 | 0.01 | 94 | 1025.9 |
| 20260831194049 | 51 | 317 | 0.0 | 0.0 | 0.00 | 0.01 | 0.01 | 94 | 1025.8 |
| 20260831193547 | 52 | 317 | 0.0 | 0.0 | 0.00 | 0.01 | 0.01 | 93 | 1025.8 |
| 20260831193047 | 52 | 317 | 0.0 | 0.0 | 0.00 | 0.01 | 0.01 | 93 | 1025.7 |
| 20260831192545 | 52 | 317 | 0.0 | 0.0 | 0.00 | 0.01 | 0.01 | 94 | 1025.7 |
| 20260831192048 | 53 | 317 | 0.0 | 0.0 | 0.00 | 0.01 | 0.01 | 94 | 1025.7 |
| 20260831191544 | 53 | 317 | 0.0 | 0.0 | 0.00 | 0.01 | 0.01 | 94 | 1025.7 |
| 20260831191044 | 53 | 317 | 0.0 | 1.0 | 0.00 | 0.01 | 0.01 | 94 | 1025.7 |
| 20260831190544 | 53 | 315 | 0.0 | 4.0 | 0.00 | 0.01 | 0.01 | 94 | 1025.7 |
| 20260831185543 | 53 | 322 | 0.0 | 3.0 | 0.00 | 0.01 | 0.01 | 94 | 1025.7 |
| 20260831185043 | 53 | 321 | 0.0 | 4.0 | 0.00 | 0.01 | 0.01 | 94 | 1025.7 |
| 20260831184542 | 53 | 316 | 1.0 | 4.0 | 0.00 | 0.01 | 0.01 | 94 | 1025.7 |
| 20260831184042 | 53 | 305 | 1.0 | 4.0 | 0.00 | 0.01 | 0.01 | 94 | 1025.8 |
| 20260831183542 | 53 | 298 | 1.0 | 3.0 | 0.00 | 0.01 | 0.01 | 94 | 1025.7 |
| 20260831183042 | 53 | 319 | 0.0 | 3.0 | 0.00 | 0.01 | 0.01 | 93 | 1025.8 |
| 20260831182541 | 53 | 350 | 0.0 | 2.0 | 0.00 | 0.01 | 0.01 | 93 | 1025.8 |
| 20260831182041 | 53 | 323 | 0.0 | 2.0 | 0.00 | 0.01 | 0.01 | 94 | 1025.7 |
| 20260831181541 | 53 | 323 | 0.0 | 2.0 | 0.00 | 0.01 | 0.01 | 93 | 1025.8 |
| 20260831181040 | 53 | 290 | 0.0 | 2.0 | 0.00 | 0.01 | 0.01 | 93 | 1025.8 |
| 20260831180049 | 53 | 290 | 0.0 | 2.0 | 0.00 | 0.01 | 0.01 | 93 | 1025.8 |
| 20260831175547 | 53 | 290 | 0.0 | 2.0 | 0.00 | 0.02 | 0.01 | 93 | 1025.8 |
| 20260831175046 | 53 | 290 | 0.0 | 2.0 | 0.01 | 0.02 | 0.01 | 93 | 1025.8 |
| 20260831174547 | 53 | 286 | 0.0 | 3.0 | 0.01 | 0.02 | 0.01 | 93 | 1025.8 |
| 20260831174046 | 53 | 286 | 1.0 | 3.0 | 0.01 | 0.02 | 0.01 | 93 | 1025.8 |
| 20260831173548 | 53 | 288 | 0.0 | 2.0 | 0.01 | 0.02 | 0.01 | 92 | 1025.8 |
| 20260831173046 | 54 | 288 | 0.0 | 3.0 | 0.01 | 0.02 | 0.01 | 92 | 1025.8 |
| 20260831172544 | 54 | 288 | 0.0 | 3.0 | 0.01 | 0.02 | 0.01 | 92 | 1025.8 |
| 20260831172047 | 54 | 287 | 1.0 | 3.0 | 0.01 | 0.02 | 0.01 | 92 | 1025.9 |
| 20260831171543 | 54 | 287 | 0.0 | 3.0 | 0.01 | 0.02 | 0.01 | 92 | 1025.9 |
| 20260831171042 | 54 | 287 | 0.0 | 2.0 | 0.01 | 0.02 | 0.01 | 92 | 1025.9 |
| 20260831170541 | 54 | 287 | 0.0 | 3.0 | 0.01 | 0.02 | 0.01 | 92 | 1025.9 |
| 20260831170040 | 54 | 287 | 0.0 | 3.0 | 0.01 | 0.02 | 0.01 | 92 | 1025.9 |
| 20260831165540 | 55 | 305 | 0.0 | 0.0 | 0.01 | 0.02 | 0.01 | 92 | 1025.9 |
| 20260831165038 | 55 | 298 | 0.0 | 0.0 | 0.00 | 0.01 | 0.00 | 91 | 1026.0 |
| 20260831164554 | 55 | 285 | 0.0 | 2.0 | 0.00 | 0.01 | 0.00 | 91 | 1026.0 |
| 20260831164039 | 55 | 285 | 0.0 | 2.0 | 0.00 | 0.01 | 0.00 | 91 | 1026.1 |
| 20260831163536 | 55 | 289 | 0.0 | 3.0 | 0.00 | 0.01 | 0.00 | 91 | 1026.3 |
| 20260831163040 | 55 | 298 | 1.0 | 3.0 | 0.00 | 0.01 | 0.00 | 91 | 1026.3 |
| 20260831162534 | 56 | 300 | 1.0 | 3.0 | 0.00 | 0.01 | 0.00 | 91 | 1026.4 |
| 20260831162035 | 56 | 288 | 0.0 | 2.0 | 0.00 | 0.01 | 0.00 | 91 | 1026.6 |
| 20260831161534 | 56 | 291 | 0.0 | 2.0 | 0.00 | 0.01 | 0.00 | 91 | 1026.6 |
| 20260831161032 | 56 | 302 | 0.0 | 2.0 | 0.00 | 0.01 | 0.00 | 92 | 1026.6 |
| 20260831160532 | 56 | 301 | 0.0 | 4.0 | 0.00 | 0.01 | 0.00 | 92 | 1026.7 |
| 20260831160031 | 56 | 303 | 2.0 | 4.0 | 0.00 | 0.01 | 0.00 | 92 | 1026.8 |
| 20260831155530 | 56 | 304 | 2.0 | 3.0 | 0.00 | 0.01 | 0.00 | 93 | 1026.8 |
| 20260831155029 | 56 | 310 | 2.0 | 3.0 | 0.00 | 0.01 | 0.00 | 93 | 1026.8 |
| 20260831154530 | 55 | 325 | 1.0 | 4.0 | 0.00 | 0.01 | 0.00 | 93 | 1026.9 |
| 20260831154028 | 55 | 327 | 1.0 | 4.0 | 0.00 | 0.01 | 0.00 | 93 | 1027.0 |
| 20260831153525 | 55 | 332 | 0.0 | 3.0 | 0.00 | 0.01 | 0.00 | 93 | 1027.1 |
| 20260831153027 | 55 | 326 | 1.0 | 4.0 | 0.00 | 0.01 | 0.00 | 93 | 1027.1 |
| 20260831152524 | 55 | 306 | 1.0 | 4.0 | 0.00 | 0.01 | 0.00 | 94 | 1027.2 |
| 20260831152024 | 55 | 319 | 1.0 | 4.0 | 0.00 | 0.01 | 0.00 | 94 | 1027.3 |
| 20260831151524 | 55 | 317 | 2.0 | 4.0 | 0.00 | 0.01 | 0.00 | 94 | 1027.3 |
| 20260831151023 | 55 | 331 | 1.0 | 4.0 | 0.00 | 0.01 | 0.00 | 94 | 1027.4 |
| 20260831150524 | 55 | 323 | 2.0 | 4.0 | 0.00 | 0.01 | 0.00 | 94 | 1027.4 |
| 20260831150021 | 55 | 280 | 0.0 | 2.0 | 0.00 | 0.01 | 0.00 | 94 | 1027.4 |
| 20260831145520 | 55 | 280 | 0.0 | 3.0 | 0.00 | 0.01 | 0.00 | 94 | 1027.5 |
| 20260831145021 | 55 | 303 | 0.0 | 4.0 | 0.00 | 0.01 | 0.00 | 94 | 1027.5 |
| 20260831144520 | 55 | 280 | 0.0 | 3.0 | 0.00 | 0.01 | 0.00 | 94 | 1027.5 |
| 20260831144021 | 55 | 284 | 1.0 | 4.0 | 0.00 | 0.01 | 0.00 | 94 | 1027.6 |
| 20260831143519 | 55 | 278 | 2.0 | 4.0 | 0.00 | 0.01 | 0.00 | 94 | 1027.7 |
| 20260831143021 | 55 | 261 | 1.0 | 4.0 | 0.00 | 0.01 | 0.00 | 94 | 1027.6 |
| 20260831142518 | 55 | 272 | 1.0 | 4.0 | 0.00 | 0.01 | 0.00 | 94 | 1027.7 |
| 20260831142017 | 55 | 292 | 0.0 | 3.0 | 0.00 | 0.01 | 0.00 | 94 | 1027.7 |
| 20260831141517 | 55 | 288 | 0.0 | 3.0 | 0.00 | 0.01 | 0.00 | 94 | 1027.6 |
| 20260831141017 | 55 | 294 | 0.0 | 0.0 | 0.00 | 0.01 | 0.00 | 94 | 1027.6 |
| 20260831140516 | 55 | 294 | 0.0 | 0.0 | 0.00 | 0.01 | 0.00 | 94 | 1027.7 |
| 20260831140014 | 55 | 294 | 0.0 | 0.0 | 0.00 | 0.01 | 0.00 | 94 | 1027.7 |
| 20260831135514 | 55 | 294 | 0.0 | 0.0 | 0.00 | 0.01 | 0.01 | 94 | 1027.7 |
| 20260831135014 | 55 | 294 | 0.0 | 0.0 | 0.00 | 0.01 | 0.01 | 93 | 1027.8 |
| 20260831134513 | 55 | 294 | 0.0 | 0.0 | 0.00 | 0.01 | 0.01 | 93 | 1027.8 |
| 20260831134012 | 55 | 294 | 0.0 | 0.0 | 0.00 | 0.01 | 0.01 | 93 | 1027.8 |
| 20260831133516 | 55 | 294 | 0.0 | 0.0 | 0.00 | 0.01 | 0.01 | 93 | 1027.9 |
| 20260831133012 | 55 | 294 | 0.0 | 0.0 | 0.00 | 0.01 | 0.01 | 93 | 1027.9 |
| 20260831132512 | 55 | 294 | 0.0 | 0.0 | 0.00 | 0.01 | 0.01 | 93 | 1028.0 |
| 20260831132012 | 55 | 294 | 0.0 | 0.0 | 0.00 | 0.01 | 0.01 | 93 | 1028.0 |
| 20260831131512 | 56 | 294 | 0.0 | 0.0 | 0.00 | 0.01 | 0.01 | 92 | 1028.1 |
| 20260831131012 | 56 | 294 | 0.0 | 0.0 | 0.00 | 0.01 | 0.01 | 92 | 1028.2 |
| 20260831130511 | 56 | 294 | 0.0 | 0.0 | 0.00 | 0.01 | 0.01 | 92 | 1028.2 |
| 20260831130015 | 56 | 292 | 0.0 | 0.0 | 0.00 | 0.01 | 0.01 | 92 | 1028.2 |
| 20260831125511 | 56 | 292 | 0.0 | 0.0 | 0.00 | 0.01 | 0.01 | 92 | 1028.3 |
| 20260831125012 | 56 | 292 | 0.0 | 0.0 | 0.00 | 0.01 | 0.01 | 92 | 1028.3 |
| 20260831124510 | 57 | 292 | 0.0 | 0.0 | 0.00 | 0.01 | 0.01 | 92 | 1028.3 |
| 20260831124010 | 57 | 292 | 0.0 | 0.0 | 0.00 | 0.01 | 0.01 | 92 | 1028.3 |
| 20260831123514 | 57 | 292 | 0.0 | 0.0 | 0.00 | 0.01 | 0.01 | 92 | 1028.3 |
| 20260831123010 | 57 | 292 | 0.0 | 0.0 | 0.00 | 0.01 | 0.01 | 92 | 1028.4 |
| 20260831122510 | 57 | 292 | 0.0 | 0.0 | 0.00 | 0.01 | 0.01 | 92 | 1028.4 |
| 20260831122010 | 57 | 281 | 0.0 | 0.0 | 0.00 | 0.01 | 0.01 | 91 | 1028.5 |
| 20260831121510 | 58 | 289 | 0.0 | 0.0 | 0.00 | 0.01 | 0.01 | 91 | 1028.5 |
| 20260831121010 | 58 | 304 | 0.0 | 0.0 | 0.00 | 0.01 | 0.01 | 91 | 1028.6 |
| 20260831120510 | 58 | 289 | 0.0 | 0.0 | 0.00 | 0.01 | 0.01 | 91 | 1028.6 |
| 20260831120015 | 58 | 289 | 0.0 | 4.0 | 0.00 | 0.01 | 0.01 | 91 | 1028.6 |
| 20260831115508 | 58 | 317 | 1.0 | 4.0 | 0.00 | 0.01 | 0.01 | 91 | 1028.7 |
| 20260831115009 | 58 | 302 | 0.0 | 3.0 | 0.00 | 0.01 | 0.01 | 90 | 1028.8 |
| 20260831114523 | 58 | 232 | 0.0 | 3.0 | 0.00 | 0.01 | 0.01 | 90 | 1028.8 |
| 20260831114008 | 58 | 245 | 0.0 | 3.0 | 0.00 | 0.01 | 0.01 | 90 | 1028.8 |
| 20260831113508 | 59 | 19 | 0.0 | 2.0 | 0.00 | 0.01 | 0.01 | 90 | 1028.8 |
| 20260831113008 | 59 | 292 | 0.0 | 5.0 | 0.00 | 0.01 | 0.01 | 90 | 1028.9 |
| 20260831112508 | 59 | 277 | 0.0 | 5.0 | 0.00 | 0.01 | 0.01 | 89 | 1028.9 |
| 20260831112007 | 59 | 313 | 1.0 | 5.0 | 0.00 | 0.01 | 0.01 | 89 | 1028.9 |
| 20260831111506 | 59 | 258 | 0.0 | 4.0 | 0.00 | 0.01 | 0.01 | 89 | 1028.9 |
| 20260831111011 | 59 | 343 | 1.0 | 4.0 | 0.00 | 0.01 | 0.01 | 89 | 1028.8 |
| 20260831110511 | 59 | 309 | 0.0 | 4.0 | 0.00 | 0.01 | 0.01 | 89 | 1028.8 |
| 20260831110006 | 59 | 355 | 1.0 | 6.0 | 0.00 | 0.01 | 0.01 | 89 | 1028.8 |
| 20260831105506 | 59 | 263 | 1.0 | 5.0 | 0.00 | 0.01 | 0.01 | 89 | 1028.8 |
| 20260831105006 | 59 | 286 | 2.0 | 5.0 | 0.00 | 0.01 | 0.01 | 88 | 1028.8 |
| 20260831104506 | 59 | 11 | 0.0 | 4.0 | 0.00 | 0.01 | 0.01 | 88 | 1028.8 |
| 20260831104005 | 59 | 336 | 1.0 | 4.0 | 0.00 | 0.01 | 0.01 | 88 | 1028.8 |
| 20260831103507 | 59 | 284 | 0.0 | 5.0 | 0.00 | 0.01 | 0.01 | 87 | 1028.8 |
| 20260831103005 | 59 | 297 | 1.0 | 5.0 | 0.00 | 0.01 | 0.01 | 87 | 1028.8 |
| 20260831102505 | 59 | 288 | 1.0 | 4.0 | 0.00 | 0.01 | 0.01 | 87 | 1028.8 |
| 20260831102005 | 59 | 254 | 1.0 | 4.0 | 0.00 | 0.01 | 0.01 | 87 | 1028.8 |
| 20260831101505 | 59 | 267 | 0.0 | 3.0 | 0.00 | 0.01 | 0.01 | 86 | 1028.8 |
| 20260831101005 | 60 | 275 | 1.0 | 5.0 | 0.00 | 0.01 | 0.01 | 86 | 1028.8 |
| 20260831100504 | 60 | 317 | 1.0 | 5.0 | 0.00 | 0.01 | 0.01 | 86 | 1028.9 |
| 20260831100004 | 60 | 327 | 1.0 | 4.0 | 0.00 | 0.01 | 0.01 | 86 | 1028.9 |
| 20260831095503 | 60 | 304 | 1.0 | 3.0 | 0.00 | 0.01 | 0.01 | 86 | 1028.9 |
| 20260831095003 | 60 | 271 | 1.0 | 4.0 | 0.00 | 0.01 | 0.01 | 86 | 1028.8 |
| 20260831094504 | 60 | 325 | 1.0 | 4.0 | 0.00 | 0.01 | 0.01 | 86 | 1028.9 |
| 20260831094003 | 60 | 279 | 0.0 | 4.0 | 0.00 | 0.01 | 0.01 | 85 | 1028.9 |
| 20260831093506 | 60 | 282 | 1.0 | 4.0 | 0.00 | 0.01 | 0.01 | 86 | 1028.9 |
| 20260831093004 | 60 | 340 | 0.0 | 5.0 | 0.00 | 0.01 | 0.01 | 86 | 1028.9 |
| 20260831092504 | 60 | 272 | 1.0 | 5.0 | 0.00 | 0.01 | 0.01 | 85 | 1028.9 |
| 20260831092002 | 60 | 347 | 0.0 | 3.0 | 0.00 | 0.01 | 0.01 | 85 | 1028.9 |
| 20260831091507 | 60 | 286 | 0.0 | 7.0 | 0.00 | 0.01 | 0.01 | 85 | 1028.9 |
| 20260831091002 | 60 | 311 | 2.0 | 7.0 | 0.00 | 0.01 | 0.01 | 85 | 1028.9 |
| 20260831090502 | 60 | 290 | 1.0 | 4.0 | 0.00 | 0.01 | 0.01 | 85 | 1028.8 |
| 20260831090002 | 61 | 304 | 0.0 | 6.0 | 0.00 | 0.01 | 0.01 | 85 | 1028.8 |
| 20260831085501 | 61 | 281 | 1.0 | 6.0 | 0.00 | 0.01 | 0.01 | 84 | 1028.8 |
| 20260831085001 | 61 | 296 | 1.0 | 4.0 | 0.00 | 0.01 | 0.01 | 84 | 1028.7 |
| 20260831084501 | 61 | 285 | 0.0 | 4.0 | 0.00 | 0.01 | 0.01 | 84 | 1028.6 |
| 20260831084002 | 61 | 13 | 1.0 | 4.0 | 0.00 | 0.01 | 0.01 | 84 | 1028.6 |
| 20260831083502 | 61 | 339 | 0.0 | 4.0 | 0.00 | 0.01 | 0.01 | 83 | 1028.6 |
| 20260831083110 | 61 | 327 | 1.0 | 3.0 | 0.00 | 0.01 | 0.01 | 83 | 1028.5 |
| 20260831082600 | 61 | 333 | 0.0 | 3.0 | 0.00 | 0.01 | 0.01 | 83 | 1028.5 |
| 20260831082502 | 61 | 333 | 1.0 | 3.0 | 0.00 | 0.01 | 0.01 | 83 | 1028.5 |
| 20260831082002 | 61 | 344 | 0.0 | 3.0 | 0.00 | 0.01 | 0.01 | 82 | 1028.5 |
| 20260831081607 | 61 | 314 | 0.0 | 3.0 | 0.00 | 0.01 | 0.01 | 82 | 1028.5 |
| 20260831081101 | 61 | 355 | 0.0 | 4.0 | 0.00 | 0.01 | 0.01 | 82 | 1028.5 |
| 20260831080604 | 61 | 321 | 1.0 | 5.0 | 0.00 | 0.01 | 0.01 | 81 | 1028.5 |
| 20260831080100 | 61 | 66 | 0.0 | 5.0 | 0.00 | 0.01 | 0.01 | 80 | 1028.6 |
| 20260831075600 | 62 | 325 | 0.0 | 4.0 | 0.00 | 0.01 | 0.01 | 79 | 1028.6 |
| 20260831075100 | 62 | 332 | 0.0 | 4.0 | 0.00 | 0.01 | 0.01 | 78 | 1028.5 |
| 20260831074606 | 62 | 64 | 0.0 | 2.0 | 0.00 | 0.01 | 0.01 | 77 | 1028.5 |
| 20260831074102 | 63 | 341 | 0.0 | 3.0 | 0.00 | 0.01 | 0.01 | 76 | 1028.5 |
| 20260831073559 | 63 | 313 | 0.0 | 3.0 | 0.00 | 0.01 | 0.01 | 75 | 1028.5 |
| 20260831073100 | 64 | 309 | 0.0 | 3.0 | 0.00 | 0.01 | 0.01 | 74 | 1028.4 |
| 20260831072559 | 64 | 212 | 0.0 | 4.0 | 0.00 | 0.01 | 0.01 | 73 | 1028.4 |
| 20260831072058 | 64 | 337 | 1.0 | 4.0 | 0.00 | 0.01 | 0.01 | 72 | 1028.4 |
| 20260831071559 | 65 | 293 | 0.0 | 2.0 | 0.00 | 0.01 | 0.01 | 72 | 1028.3 |
| 20260831071058 | 65 | 42 | 0.0 | 1.0 | 0.00 | 0.01 | 0.01 | 71 | 1028.3 |
| 20260831070558 | 65 | 42 | 0.0 | 3.0 | 0.00 | 0.01 | 0.01 | 70 | 1028.2 |
| 20260831065557 | 65 | 87 | 0.0 | 3.0 | 0.00 | 0.01 | 0.01 | 68 | 1028.3 |
| 20260831065057 | 66 | 76 | 0.0 | 3.0 | 0.00 | 0.01 | 0.01 | 66 | 1028.3 |
| 20260831064558 | 66 | 59 | 0.0 | 5.0 | 0.00 | 0.01 | 0.01 | 65 | 1028.2 |